Weather History for KBIV - June, 2012

Change the Weather History Date:

Wednesday, June 6, 2012

  Actual Average Record
Temperature  
Mean Temperature 64 °F 66 °F  
Max Temperature 77 °F 76 °F 90 °F (1999)
Min Temperature 50 °F 55 °F 36 °F (1958)
Degree Days  
Heating Degree Days 1 3  
Month to date heating degree days 20  
Since 1 June heating degree days 20  
Since 1 July heating degree days 6132  
Cooling Degree Days 0 3  
Month to date cooling degree days 18  
Year to date cooling degree days 60  
Since 1 June cooling degree days 18  
Growing Degree Days 14 (Base 50)    
Moisture  
Dew Point 49 °F    
Average Humidity 59    
Maximum Humidity 83    
Minimum Humidity 35    
Precipitation  
Precipitation 0.00 in 0.16 in 1.13 in (1980)
Month to date precipitation 0.31 0.80  
Year to date precipitation 13.39  
Sea Level Pressure  
Sea Level Pressure 30.07 in    
Wind  
Wind Speed 2 mph (WNW)    
Max Wind Speed 15 mph    
Max Gust Speed 21 mph    
Visibility 10 miles    
Events      
T = Trace of Precipitation, MM = Missing Value Source: NWS Daily Summary

Daily Weather History Graph

Daily Weather History Graph

Search for Another Location

Airport or City:

Trip Planner

Search our weather history database for the weather conditions in past years. The results will help you decide how hot, cold, wet, or windy it might be!

Date:

Astronomy

Jun. 06, 2012 Rise Set
Actual Time 6:06 AM EDT 9:19 PM EDT
Civil Twilight 5:32 AM EDT 9:54 PM EDT
Nautical Twilight 4:47 AM EDT 10:39 PM EDT
Astronomical Twilight 3:53 AM EDT 11:33 PM EDT
Moon 11:28 PM EDT (6/6) 8:28 AM EDT (6/6)
Length of Visible Light 16h 22m
Length of Day
15h 13m
Waning Gibbous, 93% of the Moon is Illuminated
Jun 6
Waning Gibbous
Jun 11
Last Quarter
Jun 19
New
Jun 26
First Quarter
Jul 3
Full

Hourly Weather History & Observations

Time (EDT) Temp. Dew Point Humidity Pressure Visibility Wind Dir Wind Speed Gust Speed Precip Events Conditions
12:53 AM 55.9 °F 48.9 °F 77% 30.04 in 10.0 mi Calm Calm - N/A   Clear
1:53 AM 55.9 °F 50.0 °F 80% 30.04 in 10.0 mi Calm Calm - N/A   Overcast
2:53 AM 55.9 °F 50.0 °F 80% 30.04 in 10.0 mi Calm Calm - N/A   Partly Cloudy
3:53 AM 54.0 °F 48.9 °F 83% 30.04 in 10.0 mi Calm Calm - N/A   Clear
4:53 AM 53.1 °F 48.0 °F 83% 30.05 in 10.0 mi Calm Calm - N/A   Clear
5:53 AM 51.1 °F 46.0 °F 83% 30.06 in 10.0 mi Calm Calm - N/A   Clear
6:53 AM 53.1 °F 48.9 °F 86% 30.07 in 10.0 mi Calm Calm - N/A   Clear
7:53 AM 61.0 °F 53.1 °F 75% 30.08 in 10.0 mi Calm Calm - N/A   Partly Cloudy
8:53 AM 64.0 °F 52.0 °F 65% 30.09 in 10.0 mi Calm Calm - N/A   Clear
9:53 AM 69.1 °F 51.1 °F 53% 30.09 in 10.0 mi Calm Calm - N/A   Clear
10:53 AM 72.0 °F 52.0 °F 49% 30.09 in 10.0 mi Calm Calm - N/A   Clear
11:53 AM 72.0 °F 48.9 °F 44% 30.09 in 10.0 mi Calm Calm - N/A   Scattered Clouds
12:53 PM 77.0 °F 50.0 °F 39% 30.07 in 10.0 mi Variable 3.5 mph - N/A   Partly Cloudy
1:53 PM 75.0 °F 53.1 °F 46% 30.08 in 10.0 mi West 8.1 mph - N/A   Clear
2:53 PM 73.0 °F 53.1 °F 49% 30.07 in 10.0 mi WNW 12.7 mph 16.1 mph N/A   Clear
3:53 PM 72.0 °F 50.0 °F 46% 30.07 in 10.0 mi WNW 9.2 mph - N/A   Clear
5:53 PM 73.0 °F 45.0 °F 37% 30.06 in 10.0 mi NW 12.7 mph - N/A   Clear
6:53 PM 73.0 °F 46.0 °F 38% 30.06 in 10.0 mi NW 9.2 mph - N/A   Clear
7:53 PM 70.0 °F 46.0 °F 42% 30.06 in 10.0 mi NW 6.9 mph - N/A   Clear
8:53 PM 66.9 °F 46.9 °F 49% 30.06 in 10.0 mi WNW 4.6 mph - N/A   Clear
9:53 PM 63.0 °F 48.0 °F 58% 30.08 in 10.0 mi Calm Calm - N/A   Overcast
10:53 PM 63.0 °F 48.9 °F 60% 30.09 in 10.0 mi Calm Calm - N/A   Overcast
11:53 PM 60.1 °F 48.0 °F 64% 30.10 in 10.0 mi Calm Calm - N/A   Partly Cloudy